| time (UTC) | temp F | wind direction | speed MPH | gust MPH | rain 1hr in | rain 24hr in | rain mn in | humidity % | barometer mb |
| 20260506062254 | 63 | 15 | 6.0 | 12.0 | 0.00 | 0.00 | 0.00 | 71 | 1009.0 |
| 20260506061742 | 63 | 19 | 6.0 | 12.0 | 0.00 | 0.00 | 0.00 | 72 | 1009.1 |
| 20260506061733 | 62 | 357 | 7.0 | 12.0 | 0.00 | 0.00 | 0.00 | 72 | 1009.1 |
| 20260506060722 | 63 | 30 | 7.0 | 12.0 | 0.00 | 0.00 | 0.00 | 72 | 1009.0 |
| 20260506060212 | 63 | 5 | 6.0 | 13.0 | 0.00 | 0.00 | 0.00 | 71 | 1009.2 |
| 20260506051024 | 65 | 288 | 5.0 | 11.0 | 0.00 | 0.00 | 0.00 | 70 | 1009.2 |
| 20260506050514 | 65 | 12 | 4.0 | 9.0 | 0.00 | 0.00 | 0.00 | 70 | 1009.1 |
| 20260506044453 | 67 | 6 | 5.0 | 12.0 | 0.00 | 0.00 | 0.00 | 69 | 1008.9 |
| 20260506043951 | 67 | 357 | 6.0 | 12.0 | 0.00 | 0.00 | 0.00 | 69 | 1008.9 |
| 20260506043946 | 67 | 28 | 6.0 | 16.0 | 0.00 | 0.00 | 0.00 | 69 | 1009.0 |
| 20260506042937 | 67 | 332 | 7.0 | 16.0 | 0.00 | 0.00 | 0.00 | 69 | 1009.1 |
| 20260506042428 | 67 | 53 | 7.0 | 16.0 | 0.00 | 0.00 | 0.00 | 69 | 1009.0 |
| 20260506041914 | 68 | 25 | 7.0 | 16.0 | 0.00 | 0.00 | 0.00 | 68 | 1009.0 |
| 20260506041409 | 68 | 20 | 5.0 | 13.0 | 0.00 | 0.00 | 0.00 | 68 | 1008.9 |
| 20260506040906 | 69 | 6 | 5.0 | 11.0 | 0.00 | 0.00 | 0.00 | 68 | 1008.8 |
| 20260506040402 | 69 | 320 | 4.0 | 11.0 | 0.00 | 0.00 | 0.00 | 68 | 1008.8 |
| 20260506035850 | 69 | 7 | 3.0 | 9.0 | 0.00 | 0.00 | 0.00 | 68 | 1008.7 |
| 20260506035345 | 69 | 338 | 5.0 | 12.0 | 0.00 | 0.00 | 0.00 | 68 | 1008.4 |
| 20260506034839 | 69 | 10 | 6.0 | 12.0 | 0.00 | 0.00 | 0.00 | 68 | 1008.0 |
| 20260506034330 | 69 | 22 | 7.0 | 14.0 | 0.00 | 0.00 | 0.00 | 68 | 1008.3 |
| 20260506033825 | 69 | 13 | 7.0 | 14.0 | 0.00 | 0.00 | 0.00 | 67 | 1008.3 |
| 20260506033818 | 69 | 24 | 6.0 | 12.0 | 0.00 | 0.00 | 0.00 | 67 | 1008.2 |
| 20260506032806 | 69 | 28 | 7.0 | 14.0 | 0.00 | 0.00 | 0.00 | 66 | 1008.0 |
| 20260506032754 | 70 | 10 | 7.0 | 13.0 | 0.00 | 0.00 | 0.00 | 65 | 1007.8 |
| 20260506032359 | 69 | 6 | 7.0 | 14.0 | 0.00 | 0.00 | 0.00 | 65 | 1007.9 |
| 20260506031241 | 70 | 42 | 6.0 | 11.0 | 0.00 | 0.00 | 0.00 | 64 | 1007.7 |
| 20260506030733 | 71 | 0 | 5.0 | 11.0 | 0.00 | 0.00 | 0.00 | 63 | 1007.9 |
| 20260506030225 | 71 | 39 | 6.0 | 14.0 | 0.00 | 0.00 | 0.00 | 63 | 1007.6 |
| 20260506030218 | 71 | 44 | 6.0 | 14.0 | 0.00 | 0.00 | 0.00 | 63 | 1007.6 |
| 20260506025207 | 71 | 313 | 6.0 | 14.0 | 0.00 | 0.00 | 0.00 | 64 | 1007.7 |
| 20260506024657 | 71 | 12 | 5.0 | 14.0 | 0.00 | 0.00 | 0.00 | 64 | 1007.5 |
| 20260506024146 | 71 | 355 | 5.0 | 14.0 | 0.00 | 0.00 | 0.00 | 64 | 1007.4 |
| 20260506023636 | 71 | 48 | 7.0 | 14.0 | 0.00 | 0.00 | 0.00 | 64 | 1007.3 |
| 20260506023631 | 72 | 29 | 7.0 | 17.0 | 0.00 | 0.00 | 0.00 | 64 | 1007.2 |
| 20260506022115 | 73 | 8 | 6.0 | 12.0 | 0.00 | 0.00 | 0.00 | 63 | 1006.9 |
| 20260506022107 | 73 | 7 | 6.0 | 12.0 | 0.00 | 0.00 | 0.00 | 63 | 1006.8 |
| 20260506021056 | 73 | 325 | 7.0 | 14.0 | 0.00 | 0.00 | 0.00 | 64 | 1006.7 |
| 20260506021046 | 73 | 7 | 6.0 | 14.0 | 0.00 | 0.00 | 0.00 | 63 | 1006.5 |
| 20260506020036 | 74 | 5 | 5.0 | 11.0 | 0.00 | 0.00 | 0.00 | 62 | 1006.1 |
| 20260506015527 | 74 | 351 | 6.0 | 11.0 | 0.00 | 0.00 | 0.00 | 62 | 1006.1 |
| 20260506015030 | 74 | 37 | 5.0 | 11.0 | 0.00 | 0.00 | 0.00 | 62 | 1005.9 |
| 20260506015026 | 74 | 9 | 6.0 | 11.0 | 0.00 | 0.00 | 0.00 | 62 | 1005.7 |
| 20260506014026 | 75 | 53 | 4.0 | 11.0 | 0.00 | 0.00 | 0.00 | 62 | 1006.0 |
| 20260506013516 | 75 | 32 | 5.0 | 11.0 | 0.00 | 0.00 | 0.00 | 61 | 1005.7 |
| 20260506013007 | 76 | 40 | 6.0 | 13.0 | 0.00 | 0.00 | 0.00 | 61 | 1005.7 |
| 20260506012446 | 76 | 23 | 6.0 | 15.0 | 0.00 | 0.00 | 0.00 | 61 | 1005.3 |
| 20260506011946 | 76 | 9 | 6.0 | 15.0 | 0.00 | 0.00 | 0.00 | 60 | 1005.2 |
| 20260506011436 | 77 | 30 | 7.0 | 18.0 | 0.00 | 0.00 | 0.00 | 60 | 1005.2 |
| 20260506010926 | 77 | 41 | 7.0 | 18.0 | 0.00 | 0.00 | 0.00 | 60 | 1005.4 |
| 20260506010416 | 78 | 27 | 6.0 | 11.0 | 0.00 | 0.00 | 0.00 | 59 | 1005.4 |
| 20260506005905 | 78 | 17 | 6.0 | 11.0 | 0.00 | 0.00 | 0.00 | 58 | 1005.3 |
| 20260506005356 | 79 | 35 | 5.0 | 11.0 | 0.00 | 0.00 | 0.00 | 58 | 1005.1 |
| 20260506004846 | 79 | 352 | 4.0 | 10.0 | 0.00 | 0.00 | 0.00 | 58 | 1005.0 |
| 20260506004336 | 79 | 15 | 4.0 | 11.0 | 0.00 | 0.00 | 0.00 | 58 | 1004.7 |
| 20260506003826 | 80 | 349 | 5.0 | 11.0 | 0.00 | 0.00 | 0.00 | 58 | 1004.9 |
| 20260506003316 | 80 | 13 | 6.0 | 12.0 | 0.00 | 0.00 | 0.00 | 57 | 1004.9 |
| 20260506002806 | 80 | 15 | 6.0 | 12.0 | 0.00 | 0.00 | 0.00 | 56 | 1004.8 |
| 20260506002256 | 81 | 26 | 5.0 | 12.0 | 0.00 | 0.00 | 0.00 | 56 | 1004.7 |
| 20260506001746 | 82 | 28 | 5.0 | 12.0 | 0.00 | 0.00 | 0.00 | 55 | 1004.7 |
| 20260506001236 | 82 | 349 | 5.0 | 15.0 | 0.00 | 0.00 | 0.00 | 54 | 1004.6 |
| 20260506000726 | 83 | 329 | 4.0 | 15.0 | 0.00 | 0.00 | 0.00 | 55 | 1004.7 |
| 20260506000219 | 83 | 354 | 4.0 | 10.0 | 0.00 | 0.00 | 0.00 | 56 | 1004.6 |
| 20260506000207 | 83 | 15 | 6.0 | 12.0 | 0.00 | 0.00 | 0.00 | 54 | 1004.6 |
| 20260505235656 | 84 | 1 | 6.0 | 12.0 | 0.00 | 0.00 | 0.00 | 53 | 1004.4 |
| 20260505234645 | 85 | 22 | 4.0 | 11.0 | 0.00 | 0.00 | 0.00 | 52 | 1004.3 |
| 20260505234136 | 85 | 38 | 4.0 | 13.0 | 0.00 | 0.00 | 0.00 | 52 | 1004.3 |
| 20260505233626 | 86 | 26 | 4.0 | 13.0 | 0.00 | 0.00 | 0.00 | 51 | 1004.1 |
| 20260505233116 | 86 | 10 | 5.0 | 11.0 | 0.00 | 0.00 | 0.00 | 50 | 1004.0 |
| 20260505232606 | 86 | 17 | 5.0 | 11.0 | 0.00 | 0.00 | 0.00 | 49 | 1003.9 |
| 20260505232106 | 86 | 359 | 4.0 | 10.0 | 0.00 | 0.00 | 0.00 | 50 | 1003.9 |
| 20260505231556 | 86 | 359 | 4.0 | 10.0 | 0.00 | 0.00 | 0.00 | 51 | 1003.8 |
| 20260505231056 | 87 | 354 | 4.0 | 10.0 | 0.00 | 0.00 | 0.00 | 49 | 1003.7 |
| 20260505230546 | 87 | 355 | 3.0 | 9.0 | 0.00 | 0.00 | 0.00 | 50 | 1003.6 |
| 20260505230537 | 87 | 23 | 3.0 | 9.0 | 0.00 | 0.00 | 0.00 | 59 | 1003.7 |
| 20260505230026 | 88 | 188 | 3.0 | 10.0 | 0.00 | 0.00 | 0.00 | 57 | 1003.5 |
| 20260505225016 | 88 | 189 | 2.0 | 8.0 | 0.00 | 0.00 | 0.00 | 57 | 1003.3 |
| 20260505224959 | 90 | 236 | 1.0 | 5.0 | 0.00 | 0.00 | 0.00 | 47 | 1003.2 |
| 20260505224602 | 89 | 230 | 2.0 | 5.0 | 0.00 | 0.00 | 0.00 | 51 | 1003.2 |
| 20260505223446 | 89 | 262 | 1.0 | 5.0 | 0.00 | 0.00 | 0.00 | 48 | 1003.2 |
| 20260505222936 | 90 | 163 | 2.0 | 7.0 | 0.00 | 0.00 | 0.00 | 46 | 1003.1 |
| 20260505222424 | 91 | 299 | 2.0 | 7.0 | 0.00 | 0.00 | 0.00 | 46 | 1003.1 |
| 20260505221914 | 90 | 313 | 2.0 | 9.0 | 0.00 | 0.00 | 0.00 | 46 | 1003.1 |
| 20260505221402 | 90 | 281 | 2.0 | 9.0 | 0.00 | 0.00 | 0.00 | 46 | 1002.9 |
| 20260505220852 | 90 | 202 | 3.0 | 9.0 | 0.00 | 0.00 | 0.00 | 49 | 1002.9 |
| 20260505220342 | 90 | 286 | 3.0 | 9.0 | 0.00 | 0.00 | 0.00 | 49 | 1003.0 |
| 20260505215832 | 91 | 195 | 3.0 | 8.0 | 0.00 | 0.00 | 0.00 | 50 | 1003.0 |
| 20260505215323 | 90 | 232 | 2.0 | 8.0 | 0.00 | 0.00 | 0.00 | 52 | 1003.1 |
| 20260505214812 | 90 | 243 | 3.0 | 7.0 | 0.00 | 0.00 | 0.00 | 51 | 1003.0 |
| 20260505214302 | 90 | 214 | 4.0 | 11.0 | 0.00 | 0.00 | 0.00 | 51 | 1003.2 |
| 20260505214253 | 91 | 293 | 4.0 | 11.0 | 0.00 | 0.00 | 0.00 | 50 | 1003.2 |
| 20260505213242 | 90 | 247 | 3.0 | 9.0 | 0.00 | 0.00 | 0.00 | 52 | 1003.2 |
| 20260505212732 | 89 | 199 | 4.0 | 11.0 | 0.00 | 0.00 | 0.00 | 51 | 1003.2 |
| 20260505212222 | 89 | 169 | 4.0 | 12.0 | 0.00 | 0.00 | 0.00 | 52 | 1003.3 |
| 20260505211713 | 90 | 226 | 4.0 | 12.0 | 0.00 | 0.00 | 0.00 | 51 | 1003.4 |
| 20260505211202 | 90 | 240 | 4.0 | 11.0 | 0.00 | 0.00 | 0.00 | 51 | 1003.4 |
| 20260505211154 | 90 | 188 | 4.0 | 11.0 | 0.00 | 0.00 | 0.00 | 51 | 1003.5 |
| 20260505210142 | 89 | 251 | 4.0 | 10.0 | 0.00 | 0.00 | 0.00 | 53 | 1003.6 |
| 20260505205631 | 89 | 262 | 4.0 | 10.0 | 0.00 | 0.00 | 0.00 | 54 | 1003.8 |
| 20260505205124 | 89 | 207 | 4.0 | 16.0 | 0.00 | 0.00 | 0.00 | 52 | 1003.9 |
| 20260505204614 | 90 | 302 | 4.0 | 16.0 | 0.00 | 0.00 | 0.00 | 52 | 1003.8 |
| 20260505204109 | 88 | 240 | 3.0 | 10.0 | 0.00 | 0.00 | 0.00 | 56 | 1003.7 |
| 20260505203558 | 89 | 215 | 4.0 | 11.0 | 0.00 | 0.00 | 0.00 | 54 | 1003.9 |
| 20260505203052 | 89 | 288 | 4.0 | 11.0 | 0.00 | 0.00 | 0.00 | 53 | 1004.0 |
| 20260505202534 | 89 | 222 | 4.0 | 13.0 | 0.00 | 0.00 | 0.00 | 54 | 1004.1 |
| 20260505202024 | 89 | 240 | 5.0 | 13.0 | 0.00 | 0.00 | 0.00 | 53 | 1004.1 |
| 20260505201516 | 89 | 247 | 6.0 | 16.0 | 0.00 | 0.00 | 0.00 | 55 | 1004.1 |
| 20260505201006 | 89 | 262 | 5.0 | 16.0 | 0.00 | 0.00 | 0.00 | 54 | 1004.1 |
| 20260505200458 | 89 | 174 | 4.0 | 15.0 | 0.00 | 0.00 | 0.00 | 56 | 1004.3 |
| 20260505200451 | 89 | 238 | 4.0 | 10.0 | 0.00 | 0.00 | 0.00 | 57 | 1004.3 |
| 20260505195444 | 88 | 224 | 5.0 | 14.0 | 0.00 | 0.00 | 0.00 | 56 | 1004.3 |
| 20260505194934 | 88 | 188 | 6.0 | 14.0 | 0.00 | 0.00 | 0.00 | 57 | 1004.3 |
| 20260505194418 | 88 | 199 | 5.0 | 13.0 | 0.00 | 0.00 | 0.00 | 57 | 1004.3 |
| 20260505193915 | 87 | 237 | 5.0 | 12.0 | 0.00 | 0.00 | 0.00 | 57 | 1004.2 |
| 20260505193909 | 87 | 216 | 6.0 | 16.0 | 0.00 | 0.00 | 0.00 | 58 | 1004.3 |
| 20260505192902 | 87 | 289 | 6.0 | 16.0 | 0.00 | 0.00 | 0.00 | 56 | 1004.4 |
| 20260505192857 | 87 | 272 | 6.0 | 14.0 | 0.00 | 0.00 | 0.00 | 58 | 1004.3 |
| 20260505192511 | 87 | 233 | 5.0 | 14.0 | 0.00 | 0.00 | 0.00 | 59 | 1004.3 |
| 20260505191348 | 87 | 151 | 4.0 | 13.0 | 0.00 | 0.00 | 0.00 | 61 | 1004.3 |
| 20260505190843 | 86 | 194 | 5.0 | 14.0 | 0.00 | 0.00 | 0.00 | 59 | 1004.3 |
| 20260505190838 | 86 | 182 | 6.0 | 14.0 | 0.00 | 0.00 | 0.00 | 60 | 1004.4 |
| 20260505185834 | 86 | 247 | 7.0 | 17.0 | 0.00 | 0.00 | 0.00 | 61 | 1004.3 |
| 20260505185334 | 86 | 234 | 7.0 | 17.0 | 0.00 | 0.00 | 0.00 | 60 | 1004.5 |
| 20260505184834 | 86 | 215 | 6.0 | 14.0 | 0.00 | 0.00 | 0.00 | 61 | 1004.4 |
| 20260505184331 | 86 | 209 | 7.0 | 18.0 | 0.00 | 0.00 | 0.00 | 61 | 1004.4 |
| 20260505183825 | 84 | 150 | 7.0 | 18.0 | 0.00 | 0.00 | 0.00 | 61 | 1004.6 |
| 20260505183319 | 85 | 238 | 6.0 | 16.0 | 0.00 | 0.00 | 0.00 | 62 | 1004.5 |
| 20260505182813 | 85 | 224 | 7.0 | 16.0 | 0.00 | 0.00 | 0.00 | 62 | 1004.6 |
| 20260505182808 | 83 | 190 | 6.0 | 17.0 | 0.00 | 0.00 | 0.00 | 64 | 1004.6 |
| 20260505182301 | 84 | 219 | 6.0 | 17.0 | 0.00 | 0.00 | 0.00 | 63 | 1004.7 |
| 20260505181905 | 84 | 238 | 6.0 | 17.0 | 0.00 | 0.00 | 0.00 | 63 | 1004.7 |
| 20260505181415 | 84 | 262 | 7.0 | 15.0 | 0.00 | 0.00 | 0.00 | 65 | 1004.7 |
| 20260505180251 | 84 | 186 | 7.0 | 15.0 | 0.00 | 0.00 | 0.00 | 64 | 1004.8 |
| 20260505175742 | 83 | 209 | 6.0 | 19.0 | 0.00 | 0.00 | 0.00 | 65 | 1004.9 |
| 20260505175231 | 83 | 213 | 6.0 | 19.0 | 0.00 | 0.00 | 0.00 | 63 | 1004.8 |
| 20260505175223 | 83 | 228 | 5.0 | 16.0 | 0.00 | 0.00 | 0.00 | 65 | 1004.9 |
| 20260505174212 | 84 | 208 | 5.0 | 16.0 | 0.00 | 0.00 | 0.00 | 63 | 1004.9 |
| 20260505173701 | 83 | 198 | 5.0 | 16.0 | 0.00 | 0.00 | 0.00 | 66 | 1004.8 |
| 20260505173151 | 82 | 178 | 6.0 | 15.0 | 0.00 | 0.00 | 0.00 | 66 | 1005.0 |
| 20260505172642 | 81 | 213 | 6.0 | 13.0 | 0.00 | 0.00 | 0.00 | 67 | 1004.9 |
| 20260505172633 | 81 | 185 | 6.0 | 16.0 | 0.00 | 0.00 | 0.00 | 67 | 1004.8 |
| 20260505171622 | 81 | 267 | 6.0 | 16.0 | 0.00 | 0.00 | 0.00 | 67 | 1004.8 |
| 20260505171111 | 81 | 276 | 5.0 | 15.0 | 0.00 | 0.00 | 0.00 | 67 | 1004.8 |
| 20260505170602 | 81 | 251 | 7.0 | 17.0 | 0.00 | 0.00 | 0.00 | 67 | 1004.9 |
| 20260505170052 | 81 | 162 | 6.0 | 17.0 | 0.00 | 0.00 | 0.00 | 66 | 1005.0 |
| 20260505165541 | 82 | 207 | 7.0 | 18.0 | 0.00 | 0.00 | 0.00 | 66 | 1005.0 |
| 20260505165532 | 82 | 234 | 7.0 | 18.0 | 0.00 | 0.00 | 0.00 | 66 | 1005.0 |
| 20260505164521 | 82 | 195 | 5.0 | 13.0 | 0.00 | 0.00 | 0.00 | 66 | 1005.0 |
| 20260505164512 | 82 | 207 | 6.0 | 16.0 | 0.00 | 0.00 | 0.00 | 66 | 1004.9 |
| 20260505163501 | 81 | 205 | 7.0 | 16.0 | 0.00 | 0.00 | 0.00 | 67 | 1004.8 |
| 20260505162948 | 81 | 201 | 7.0 | 16.0 | 0.00 | 0.00 | 0.00 | 68 | 1004.8 |
| 20260505162439 | 81 | 252 | 8.0 | 16.0 | 0.00 | 0.00 | 0.00 | 69 | 1004.7 |
| 20260505161929 | 81 | 201 | 8.0 | 16.0 | 0.00 | 0.00 | 0.00 | 69 | 1004.6 |
| 20260505161420 | 80 | 216 | 7.0 | 15.0 | 0.00 | 0.00 | 0.00 | 69 | 1004.6 |
| 20260505160902 | 80 | 184 | 6.0 | 19.0 | 0.00 | 0.00 | 0.00 | 70 | 1004.7 |
| 20260505160352 | 80 | 178 | 7.0 | 18.0 | 0.00 | 0.00 | 0.00 | 71 | 1004.6 |
| 20260505153244 | 77 | 257 | 8.0 | 20.0 | 0.00 | 0.00 | 0.00 | 73 | 1004.7 |
| 20260505152734 | 77 | 218 | 8.0 | 19.0 | 0.00 | 0.00 | 0.00 | 73 | 1004.6 |
| 20260505152224 | 77 | 213 | 8.0 | 21.0 | 0.00 | 0.00 | 0.00 | 72 | 1004.7 |
| 20260505151713 | 77 | 216 | 8.0 | 19.0 | 0.00 | 0.00 | 0.00 | 73 | 1004.8 |
| 20260505151706 | 77 | 293 | 7.0 | 19.0 | 0.00 | 0.00 | 0.00 | 73 | 1004.7 |
| 20260505151147 | 76 | 251 | 8.0 | 18.0 | 0.00 | 0.00 | 0.00 | 74 | 1004.8 |
| 20260505150751 | 76 | 226 | 7.0 | 19.0 | 0.00 | 0.00 | 0.00 | 75 | 1004.9 |
| 20260505130237 | 70 | 230 | 7.0 | 15.0 | 0.00 | 0.00 | 0.00 | 83 | 1004.5 |
| 20260505130228 | 70 | 204 | 6.0 | 15.0 | 0.00 | 0.00 | 0.00 | 83 | 1004.4 |
| 20260505124707 | 69 | 172 | 6.0 | 15.0 | 0.00 | 0.00 | 0.00 | 83 | 1004.2 |
| 20260505124157 | 69 | 303 | 5.0 | 14.0 | 0.00 | 0.00 | 0.00 | 83 | 1004.2 |
| 20260505123647 | 69 | 284 | 6.0 | 16.0 | 0.00 | 0.00 | 0.00 | 83 | 1004.0 |
| 20260505123137 | 69 | 240 | 5.0 | 15.0 | 0.00 | 0.00 | 0.00 | 83 | 1004.0 |
| 20260505122627 | 69 | 229 | 5.0 | 15.0 | 0.00 | 0.00 | 0.00 | 83 | 1004.1 |
| 20260505122117 | 69 | 227 | 5.0 | 15.0 | 0.00 | 0.00 | 0.00 | 83 | 1004.0 |
| 20260505121607 | 69 | 241 | 6.0 | 18.0 | 0.00 | 0.00 | 0.00 | 83 | 1003.8 |
| 20260505121057 | 69 | 203 | 6.0 | 18.0 | 0.00 | 0.00 | 0.00 | 83 | 1003.7 |
| 20260505120547 | 69 | 201 | 6.0 | 17.0 | 0.00 | 0.00 | 0.00 | 83 | 1003.7 |
| 20260505120037 | 69 | 213 | 6.0 | 17.0 | 0.00 | 0.00 | 0.00 | 83 | 1003.7 |
| 20260505115527 | 69 | 278 | 6.0 | 14.0 | 0.00 | 0.00 | 0.00 | 83 | 1003.8 |
| 20260505115017 | 69 | 199 | 7.0 | 18.0 | 0.00 | 0.00 | 0.00 | 83 | 1003.9 |
| 20260505115008 | 69 | 285 | 7.0 | 18.0 | 0.00 | 0.00 | 0.00 | 83 | 1003.8 |
| 20260505113957 | 69 | 203 | 7.0 | 18.0 | 0.00 | 0.00 | 0.00 | 82 | 1003.7 |
| 20260505113447 | 69 | 204 | 7.0 | 16.0 | 0.00 | 0.00 | 0.00 | 82 | 1003.6 |
| 20260505112939 | 69 | 178 | 7.0 | 16.0 | 0.00 | 0.00 | 0.00 | 82 | 1003.6 |
| 20260505112429 | 69 | 198 | 7.0 | 16.0 | 0.00 | 0.00 | 0.00 | 82 | 1003.7 |
| 20260505111919 | 69 | 196 | 6.0 | 16.0 | 0.00 | 0.00 | 0.00 | 82 | 1003.7 |
| 20260505111413 | 69 | 179 | 5.0 | 18.0 | 0.00 | 0.00 | 0.00 | 82 | 1003.7 |
| 20260505110905 | 69 | 186 | 6.0 | 18.0 | 0.00 | 0.00 | 0.00 | 82 | 1003.7 |
| 20260505110848 | 69 | 195 | 6.0 | 15.0 | 0.00 | 0.00 | 0.00 | 81 | 1003.6 |
| 20260505110452 | 69 | 164 | 5.0 | 14.0 | 0.00 | 0.00 | 0.00 | 82 | 1003.6 |
| 20260505101748 | 70 | 130 | 8.0 | 22.0 | 0.00 | 0.00 | 0.00 | 81 | 1003.4 |
| 20260505101243 | 70 | 176 | 8.0 | 22.0 | 0.00 | 0.00 | 0.00 | 81 | 1003.5 |
| 20260505100738 | 70 | 254 | 8.0 | 21.0 | 0.00 | 0.00 | 0.00 | 81 | 1003.6 |
| 20260505100234 | 70 | 249 | 7.0 | 21.0 | 0.00 | 0.00 | 0.00 | 81 | 1003.5 |
| 20260505095727 | 70 | 206 | 5.0 | 23.0 | 0.00 | 0.00 | 0.00 | 80 | 1003.6 |
| 20260505095224 | 70 | 224 | 6.0 | 23.0 | 0.00 | 0.00 | 0.00 | 80 | 1003.7 |
| 20260505094717 | 70 | 213 | 8.0 | 24.0 | 0.00 | 0.00 | 0.00 | 80 | 1003.7 |
| 20260505094208 | 70 | 192 | 7.0 | 24.0 | 0.00 | 0.00 | 0.00 | 80 | 1003.7 |
| 20260505093702 | 70 | 206 | 6.0 | 16.0 | 0.00 | 0.00 | 0.00 | 80 | 1003.8 |
| 20260505093151 | 70 | 208 | 7.0 | 19.0 | 0.00 | 0.00 | 0.00 | 80 | 1003.8 |
| 20260505092650 | 70 | 217 | 8.0 | 23.0 | 0.00 | 0.00 | 0.00 | 80 | 1003.9 |
| 20260505092144 | 70 | 166 | 7.0 | 23.0 | 0.00 | 0.00 | 0.00 | 80 | 1003.9 |
| 20260505091639 | 70 | 168 | 7.0 | 16.0 | 0.00 | 0.00 | 0.00 | 80 | 1004.0 |
| 20260505091133 | 70 | 154 | 7.0 | 14.0 | 0.00 | 0.00 | 0.00 | 80 | 1004.1 |
| 20260505090616 | 70 | 220 | 6.0 | 15.0 | 0.00 | 0.00 | 0.00 | 80 | 1004.1 |
| 20260505090108 | 70 | 184 | 6.0 | 16.0 | 0.00 | 0.00 | 0.00 | 80 | 1004.1 |
| 20260505085603 | 70 | 267 | 6.0 | 15.0 | 0.00 | 0.00 | 0.00 | 80 | 1004.1 |
| 20260505085054 | 70 | 209 | 6.0 | 15.0 | 0.00 | 0.00 | 0.00 | 80 | 1004.2 |
| 20260505084549 | 70 | 182 | 6.0 | 18.0 | 0.00 | 0.00 | 0.00 | 80 | 1004.1 |
| 20260505084539 | 70 | 182 | 7.0 | 19.0 | 0.00 | 0.00 | 0.00 | 80 | 1004.1 |
| 20260505083532 | 70 | 218 | 8.0 | 19.0 | 0.00 | 0.00 | 0.00 | 79 | 1004.1 |
| 20260505083023 | 70 | 210 | 8.0 | 19.0 | 0.00 | 0.00 | 0.00 | 79 | 1004.1 |
| 20260505082512 | 70 | 219 | 8.0 | 19.0 | 0.00 | 0.00 | 0.00 | 79 | 1004.1 |
| 20260505082002 | 70 | 209 | 8.0 | 20.0 | 0.00 | 0.00 | 0.00 | 79 | 1004.1 |
| 20260505081454 | 71 | 226 | 8.0 | 20.0 | 0.00 | 0.00 | 0.00 | 78 | 1004.2 |
| 20260505080944 | 71 | 213 | 9.0 | 23.0 | 0.00 | 0.00 | 0.00 | 78 | 1004.1 |
| 20260505080436 | 71 | 186 | 8.0 | 23.0 | 0.00 | 0.00 | 0.00 | 78 | 1004.2 |
| 20260505075927 | 71 | 186 | 7.0 | 19.0 | 0.00 | 0.00 | 0.00 | 78 | 1004.3 |
| 20260505075416 | 71 | 216 | 8.0 | 20.0 | 0.00 | 0.00 | 0.00 | 78 | 1004.3 |
| 20260505075408 | 71 | 156 | 8.0 | 20.0 | 0.00 | 0.00 | 0.00 | 78 | 1004.3 |
| 20260505074356 | 71 | 173 | 6.0 | 15.0 | 0.00 | 0.00 | 0.00 | 77 | 1004.5 |
| 20260505073846 | 71 | 153 | 7.0 | 17.0 | 0.00 | 0.00 | 0.00 | 77 | 1004.5 |
| 20260505073838 | 71 | 193 | 8.0 | 17.0 | 0.00 | 0.00 | 0.00 | 77 | 1004.6 |
| 20260505072826 | 71 | 201 | 9.0 | 21.0 | 0.00 | 0.00 | 0.00 | 77 | 1004.6 |
| 20260505072316 | 71 | 154 | 9.0 | 21.0 | 0.00 | 0.00 | 0.00 | 77 | 1004.8 |
| 20260505071806 | 71 | 208 | 8.0 | 18.0 | 0.00 | 0.00 | 0.00 | 76 | 1004.8 |
| 20260505071256 | 71 | 193 | 7.0 | 23.0 | 0.00 | 0.00 | 0.00 | 76 | 1004.9 |
| 20260505070745 | 71 | 181 | 8.0 | 23.0 | 0.00 | 0.00 | 0.00 | 76 | 1005.0 |
| 20260505070737 | 71 | 213 | 7.0 | 19.0 | 0.00 | 0.00 | 0.00 | 76 | 1005.1 |
| 20260505070217 | 72 | 211 | 8.0 | 19.0 | 0.00 | 0.00 | 0.00 | 75 | 1005.2 |
| 20260505065821 | 71 | 188 | 7.0 | 19.0 | 0.00 | 0.00 | 0.00 | 75 | 1005.1 |